When you browse on this site, cookies collect data to enhance your experience and personalize the content and advertising you see.
Visit our Privacy Policy to learn more. By continuing to use the site, you agree to this use of cookies and data.
  • Em Portugal
  • Lista de países
  • Para 7 dias
  • Temperatura da água
  • Mapas de satélite
  • Mapa do tempo
  • Widgets de tempo
  • user-avatar
    Iniciar Sessão

    Previsão horária em Cobe

    Hoje, 23 Abril, Terça-feira

    Tempo Temperatura Precipitação Vento Pressão Humidade
    00:00 +18°C° 0 mm 4 m/s 757 mmHg 53%
    01:00 +18°C° 0 mm 3 m/s 757 mmHg 53%
    02:00 +17°C° 0 mm 3 m/s 757 mmHg 53%
    03:00 +17°C° 0 mm 3 m/s 757 mmHg 55%
    04:00 +17°C° 0 mm 3 m/s 758 mmHg 55%
    05:00 +17°C° 0 mm 3 m/s 758 mmHg 55%
    06:00 +17°C° 0 mm 3 m/s 758 mmHg 55%
    07:00 +19°C° 0 mm 2 m/s 758 mmHg 51%
    08:00 +21°C° 0 mm 2 m/s 758 mmHg 47%
    09:00 +23°C° 0 mm 1 m/s 758 mmHg 36%
    10:00 +24°C° 0 mm 2 m/s 758 mmHg 36%
    11:00 +26°C° 0 mm 2 m/s 758 mmHg 37%
    12:00 +27°C° 0 mm 2 m/s 758 mmHg 37%
    13:00 +27°C° 0 mm 4 m/s 758 mmHg 42%
    14:00 +27°C° 0 mm 5 m/s 758 mmHg 46%
    15:00 +26°C° 0 mm 7 m/s 758 mmHg 51%
    16:00 +24°C° 0 mm 7 m/s 758 mmHg 56%
    17:00 +23°C° 0 mm 7 m/s 758 mmHg 61%
    18:00 +22°C° 0 mm 7 m/s 758 mmHg 66%
    19:00 +22°C° 0.2 mm 6 m/s 758 mmHg 68%
    20:00 +21°C° 0.2 mm 6 m/s 758 mmHg 71%
    21:00 +20°C° 0.2 mm 5 m/s 758 mmHg 73%
    22:00 +20°C° 0.2 mm 5 m/s 758 mmHg 74%
    23:00 +20°C° 0.2 mm 4 m/s 758 mmHg 75%

    Amanhã, 24 Abril, Quarta-feira

    Tempo Temperatura Precipitação Vento Pressão Humidade
    00:00 +20°C° 0.2 mm 4 m/s 758 mmHg 75%
    01:00 +20°C° 0 mm 4 m/s 757 mmHg 76%
    02:00 +20°C° 0 mm 4 m/s 757 mmHg 76%
    03:00 +19°C° 0 mm 4 m/s 757 mmHg 76%
    04:00 +19°C° 0.1 mm 4 m/s 756 mmHg 76%
    05:00 +19°C° 0.1 mm 5 m/s 756 mmHg 76%
    06:00 +19°C° 0.1 mm 5 m/s 756 mmHg 76%
    07:00 +20°C° 0 mm 6 m/s 756 mmHg 73%
    08:00 +21°C° 0 mm 6 m/s 756 mmHg 71%
    09:00 +22°C° 0 mm 7 m/s 755 mmHg 69%
    10:00 +23°C° 0 mm 7 m/s 755 mmHg 65%
    11:00 +23°C° 0 mm 8 m/s 755 mmHg 62%
    12:00 +24°C° 0 mm 9 m/s 754 mmHg 59%
    13:00 +24°C° 0.2 mm 9 m/s 754 mmHg 61%
    14:00 +24°C° 0.2 mm 9 m/s 753 mmHg 63%
    15:00 +24°C° 0.2 mm 9 m/s 752 mmHg 65%
    16:00 +23°C° 1.3 mm 9 m/s 752 mmHg 71%
    17:00 +22°C° 1.3 mm 9 m/s 752 mmHg 76%
    18:00 +22°C° 1.3 mm 9 m/s 751 mmHg 82%
    19:00 +22°C° 4.2 mm 8 m/s 751 mmHg 84%
    20:00 +21°C° 4.2 mm 7 m/s 751 mmHg 87%
    21:00 +21°C° 4.2 mm 6 m/s 751 mmHg 89%
    22:00 +21°C° 3.7 mm 5 m/s 750 mmHg 90%
    23:00 +21°C° 3.7 mm 4 m/s 750 mmHg 91%

    Depois de amanhã, 25 Abril, Quinta-feira

    Tempo Temperatura Precipitação Vento Pressão Humidade
    00:00 +21°C° 3.7 mm 2 m/s 749 mmHg 92%
    01:00 +22°C° 1.8 mm 1 m/s 749 mmHg 92%
    02:00 +22°C° 1.8 mm 1 m/s 749 mmHg 93%
    03:00 +19°C° 1.8 mm 0 m/s 748 mmHg 93%
    04:00 +21°C° 0.1 mm 1 m/s 748 mmHg 93%
    05:00 +21°C° 0.1 mm 1 m/s 748 mmHg 92%
    06:00 +21°C° 0.1 mm 1 m/s 748 mmHg 92%
    07:00 +21°C° 0 mm 2 m/s 748 mmHg 85%
    08:00 +24°C° 0 mm 2 m/s 748 mmHg 78%
    09:00 +25°C° 0 mm 2 m/s 748 mmHg 72%
    10:00 +25°C° 0 mm 3 m/s 748 mmHg 65%
    11:00 +26°C° 0 mm 3 m/s 748 mmHg 59%
    12:00 +27°C° 0 mm 4 m/s 748 mmHg 53%
    13:00 +27°C° 0 mm 4 m/s 747 mmHg 52%
    14:00 +27°C° 0 mm 4 m/s 747 mmHg 52%
    15:00 +27°C° 0 mm 4 m/s 746 mmHg 52%
    16:00 +27°C° 0 mm 3 m/s 746 mmHg 55%
    17:00 +26°C° 0 mm 2 m/s 747 mmHg 58%
    18:00 +25°C° 0 mm 2 m/s 747 mmHg 62%
    19:00 +24°C° 0 mm 2 m/s 747 mmHg 65%
    20:00 +23°C° 0 mm 2 m/s 747 mmHg 68%
    21:00 +21°C° 0 mm 3 m/s 748 mmHg 71%
    22:00 +21°C° 0 mm 2 m/s 747 mmHg 72%
    23:00 +20°C° 0 mm 2 m/s 747 mmHg 73%

    26 Abril, Sexta-feira

    Tempo Temperatura Precipitação Vento Pressão Humidade
    00:00 +20°C° 0 mm 2 m/s 747 mmHg 74%
    01:00 +19°C° 0 mm 2 m/s 747 mmHg 75%
    02:00 +19°C° 0 mm 2 m/s 747 mmHg 76%
    03:00 +18°C° 0 mm 2 m/s 747 mmHg 77%
    04:00 +18°C° 0.1 mm 3 m/s 747 mmHg 78%
    05:00 +18°C° 0.1 mm 4 m/s 747 mmHg 79%
    06:00 +18°C° 0.1 mm 4 m/s 748 mmHg 79%
    07:00 +17°C° 0.3 mm 5 m/s 748 mmHg 77%
    08:00 +19°C° 0.3 mm 5 m/s 749 mmHg 74%
    09:00 +19°C° 0.3 mm 5 m/s 749 mmHg 72%
    10:00 +19°C° 0.2 mm 5 m/s 750 mmHg 68%
    11:00 +20°C° 0.2 mm 5 m/s 750 mmHg 64%
    12:00 +20°C° 0.2 mm 6 m/s 751 mmHg 59%
    13:00 +20°C° 0 mm 6 m/s 751 mmHg 57%
    14:00 +19°C° 0 mm 6 m/s 751 mmHg 55%
    15:00 +19°C° 0 mm 6 m/s 751 mmHg 53%
    16:00 +17°C° 0 mm 7 m/s 751 mmHg 54%
    17:00 +16°C° 0 mm 7 m/s 752 mmHg 55%
    18:00 +15°C° 0 mm 7 m/s 752 mmHg 56%
    19:00 +14°C° 0 mm 7 m/s 753 mmHg 58%
    20:00 +12°C° 0 mm 7 m/s 754 mmHg 60%
    21:00 +11°C° 0 mm 7 m/s 755 mmHg 62%
    22:00 +10°C° 0 mm 7 m/s 755 mmHg 62%
    23:00 +10°C° 0 mm 7 m/s 755 mmHg 62%

    27 Abril, Sábado

    Tempo Temperatura Precipitação Vento Pressão Humidade
    00:00 +10°C° 0 mm 7 m/s 755 mmHg 61%
    01:00 +10°C° 0 mm 7 m/s 755 mmHg 62%
    02:00 +9°C° 0 mm 7 m/s 755 mmHg 63%
    03:00 +9°C° 0 mm 7 m/s 755 mmHg 63%
    04:00 +9°C° 0 mm 8 m/s 756 mmHg 63%
    05:00 +9°C° 0 mm 8 m/s 757 mmHg 62%
    06:00 +9°C° 0 mm 8 m/s 757 mmHg 62%
    07:00 +10°C° 0 mm 8 m/s 758 mmHg 57%
    08:00 +11°C° 0 mm 8 m/s 758 mmHg 52%
    09:00 +12°C° 0 mm 8 m/s 759 mmHg 47%
    10:00 +13°C° 0 mm 8 m/s 759 mmHg 43%
    11:00 +15°C° 0 mm 8 m/s 759 mmHg 40%
    12:00 +16°C° 0 mm 8 m/s 759 mmHg 37%
    13:00 +16°C° 0 mm 7 m/s 759 mmHg 35%
    14:00 +16°C° 0 mm 7 m/s 759 mmHg 34%
    15:00 +16°C° 0 mm 7 m/s 759 mmHg 32%
    16:00 +15°C° 0 mm 7 m/s 759 mmHg 35%
    17:00 +14°C° 0 mm 7 m/s 760 mmHg 38%
    18:00 +14°C° 0 mm 7 m/s 760 mmHg 40%
    19:00 +12°C° 0 mm 7 m/s 761 mmHg 44%
    20:00 +11°C° 0 mm 7 m/s 762 mmHg 48%
    21:00 +10°C° 0 mm 7 m/s 762 mmHg 52%
    22:00 +10°C° 0 mm 6 m/s 763 mmHg 55%
    23:00 +9°C° 0 mm 5 m/s 763 mmHg 57%

    28 Abril, Domingo

    Tempo Temperatura Precipitação Vento Pressão Humidade
    00:00 +9°C° 0 mm 5 m/s 763 mmHg 59%
    01:00 +10°C° 0 mm 4 m/s 763 mmHg 59%
    02:00 +8°C° 0 mm 4 m/s 763 mmHg 60%
    03:00 +8°C° 0 mm 4 m/s 763 mmHg 60%
    04:00 +9°C° 0 mm 3 m/s 763 mmHg 59%
    05:00 +9°C° 0 mm 3 m/s 763 mmHg 59%
    06:00 +9°C° 0 mm 3 m/s 764 mmHg 58%
    07:00 +11°C° 0 mm 3 m/s 764 mmHg 50%
    08:00 +13°C° 0 mm 3 m/s 764 mmHg 43%
    09:00 +14°C° 0 mm 3 m/s 764 mmHg 36%
    10:00 +17°C° 0 mm 2 m/s 764 mmHg 32%
    11:00 +18°C° 0 mm 2 m/s 763 mmHg 27%
    12:00 +21°C° 0 mm 1 m/s 763 mmHg 23%
    13:00 +20°C° 0 mm 2 m/s 762 mmHg 22%
    14:00 +20°C° 0 mm 2 m/s 762 mmHg 22%
    15:00 +20°C° 0 mm 3 m/s 762 mmHg 21%
    16:00 +19°C° 0 mm 4 m/s 762 mmHg 27%
    17:00 +17°C° 0 mm 5 m/s 762 mmHg 33%
    18:00 +16°C° 0 mm 6 m/s 762 mmHg 40%
    19:00 +16°C° 0 mm 6 m/s 762 mmHg 44%
    20:00 +15°C° 0 mm 6 m/s 763 mmHg 49%
    21:00 +15°C° 0 mm 6 m/s 763 mmHg 54%
    22:00 +15°C° 0 mm 5 m/s 763 mmHg 55%
    23:00 +15°C° 0 mm 5 m/s 763 mmHg 57%
    Mostrar mais